Terminal Aerodrome Forecast
Issued by NWS Mt. Holly, NJ

Home | Current Version | Previous Version | Text Only | Print | Product List | Glossary On
Versions: 1 2 3 4 5 6 7 8 9 10 11 12 13 14 15 16 17 18 19 20 21 22 23 24 25 26 27 28 29 30 31 32 33 34 35 36 37 38 39 40 41 42 43 44 45 46 47 48 49 50
000
FTUS41 KPHI 230800 AAA
TAFABE
TAF AMD
KABE 230859Z 2309/2406 07005KT P6SM -RA BKN025 OVC045
      TEMPO 2309/2312 6SM RA
     FM231200 08005KT P6SM OVC012
     FM231600 08005KT P6SM OVC020
     FM231800 09005KT P6SM SCT025 BKN050
     FM240300 VRB02KT P6SM SCT050 SCT120=

USA.gov is the U.S. government's official web portal to all federal, state and local government web resources and services.